Showing default

OPS 9327 (IDSCS 14), 2654

Orbit data source: Space-Track

OPS 9327 (IDSCS 14), 2654 is a payload satellite owned by USAF SSD (US) in GEO that was launched on Wed, 18 Jan 1967 UTC via a TITAN IIIC launch vehicle from the Air Force Eastern Test Range (AFETR). Payload-class satellites include a variety of spacecraft equipped with specific instruments for various scientific and technological missions. These include communications satellites like Starlink; space stations such as the ISS; scientific satellites like the Hubble; Earth observation satellites from companies like Planet Labs, Umbra, and HawkEye 360; GPS; miniature CubeSats for education and research; and military/defense satellites.

Loading next visibility...
Identifier
2654, 1967-003G
Orbit
GEO
Country
Flag of USUS
Related business
Manufacturer
Philco-Ford WDL
Mission
Non-operational spacecraft
Bus & Motor
IDCSP, Unknown motor
Mass
45 kg wet, 45 kg dry
Launch date (UTC)
1967-01-18 (59 years ago)
Launch vehicle
TITAN IIIC
Launch site
Air Force Eastern Test Range (AFETR)
Object type
Payload
Rocket body
Debris
Shape & HBR
Unknown
Radar Cross Section
Medium (>0.1 m² and <1 m²)

Expand to show TLE details & history
Last TLE update: 22 hours ago

TLE from 22 hours ago
0 OPS 9327 (IDSCS 14)
1  2654U 67003G   25354.25132412 -.00000104  00000-0  00000+0 0  9997
2  2654   7.8127  48.7668 0055131  45.4282 343.9780  1.07511685137552
Epoch: 2025-12-20T06:01Z
TLE epoch observation values (Epoch: 2025-12-20T06:01:54.403Z)
Latitude
3.82882°
Longitude
-101.79425°
Altitude
33,656.497 km
Speed
3.164 km/s
True Right ascension
05h 11m 03s
True Declination
3° 49' 29"
Sunlit
Object was in daylight at epoch
Visualization orbit readout
Latitude
Unknown
Longitude
Unknown
Altitude
Unknown
Speed
Unknown
Apparent Right ascension
Unknown
Apparent Declination
Unknown
Sunlit
N/A
Visualization observer readout
Local Sidereal Time
03:11:51
Azimuth
Unknown
Elevation
Unknown
Doppler factor
Unknown
Orbital elements
Apogee altitude
34,094.752 km
Perigee altitude
33,650.937 km
Semi-major axis
40,250.982 km
Eccentricity
0.00551
Inclination
7.8127°
RAAN
48.7668°
Arg. of periapsis
45.4282°
True anomaly
343.80247°
Mean anomaly
343.978°
Eccentric anomaly
343.89035°
Mean motion
0.26877 °/min
Orbital period
1,339.44 mins
BSTAR
0
Loading maneuver chart data...
Computing Atmospheric mass density...
Loading historical data...
Loading historical data...
Loading historical data...
Loading historical data...
Loading historical data...
Loading historical data...
Loading historical data...

Documentation

Showing up to 5 results
|